sat.trackr.live / text

‹ back to catalog

STARLINK-11257 [DTC]

NORAD 61201 · 2024-171B

PAYLOAD ACTIVE UNKNOWN

§ Identity

Operator
Country
US
Launch date
2024-09-20
Launch site
AFWTR
Launch vehicle
Mass (kg)
RCS (m²)

Purposes: comms

External: N2YO · Heavens-Above · Gunter

§ Orbital elements

Epoch: 2026-05-25T01:43:43.130208Z

Period
91.74 min
Inclination
53.1578°
Eccentricity
0.0000763
Mean motion
15.69711867 rev/d
Perigee alt
359.2 km
Apogee alt
360.2 km
Semi-major
6,737.9 km
B*
2.1738e-5
RAAN
159.8579°
Arg perigee
87.5378°
Mean anomaly
272.5727°
Rev number
9,639

§ Raw data

STARLINK-11257 [DTC]1 61201U 24171B   26145.07202697  .00002046  00000+0  21738-4 0  99922 61201  53.1578 159.8579 0000763  87.5378 272.5727 15.69711867 96399

JSON: /api/v1/satellites/61201 · /tle

For live sub-satellite position, see the globe view (requires WebGL).

§ Visibility from observer

Set your observer location to see the next 7 days of passes ≥ 10°. The values pass through the URL so the page stays shareable.

No JS? Fill the form by hand. The geolocation button needs JavaScript.